Погода в Брашове

Румыния     45˚38′40″N   25˚36′10″E
темп.,
°C
ветер,
м/с
пор.,
м/с
влажн.,
%
обл.,
%
осадки,
мм/ч
давл.,
гПа
погр.,
м
5 декабря, сб
сб523:00+1˚в239398 0.0 101850
02:00+1˚в239368 0.0 101853
05:00+1˚в23935 0.0 101858
08:00+2˚в239418 0.0 101953
11:00+8˚в468329 0.0 1019394
14:00+9˚в358034 0.0 1019403
17:00+5˚в349216 0.0 102079
20:00+4˚в349518 0.0 102193
6 декабря, вс
вс623:00+4˚в349553 0.0 102295
02:00+3˚вюв349340 0.0 102275
05:00+3˚в34930 0.0 1022102
08:00+2˚в35920 0.0 1022113
11:00+7˚вюв56702 0.0 1022633
14:00+8˚вюв56643 0.0 1021814
17:00+4˚в69771 0.0 1021239
20:00+3˚в610801 0.0 1021262
7 декабря, пн
пн723:00+2˚в58830 0.0 1021217
02:00+1˚в59810 0.0 1020229
05:00в59820 0.0 1019232
08:00в69810 0.0 1019259
11:00+3˚в79600 0.0 1018699
14:00+4˚в79550 0.0 1015734
17:00всв6107311 0.0 1015305
20:00−1˚всв497456 0.1 1016313
8 декабря, вт
вт823:00−2˚в3787100 0.6 1015296
02:00−1˚в2496100 2.4 1014210
05:00вюв2398100 4.3 1013175
08:00+1˚в2598100 5.2 1014204
11:00+2˚в259491 0.0 1014271
14:00+4˚вюв249296 0.0 1014194
17:00+1˚в239579 0.0 101560
20:00в239343 0.0 101657
9 декабря, ср
ср923:00в239325 0.0 101658
02:00в239217 0.0 101562
05:00в349268 0.0 101490
08:00+2˚в359484 0.0 1014100
11:00+6˚вюв41090100 0.0 1014483
14:00+7˚вюв4790100 0.0 1012289
17:00+4˚в3696100 0.1 1011156
20:00+4˚вюв3598100 0.8 1010135